sat.trackr.live / text

‹ back to catalog

UKUBE-1

NORAD 40074 · 2014-037F

PAYLOAD ACTIVE UNKNOWN

§ Identity

Operator
Country
UK
Launch date
2014-07-08
Launch site
TYMSC
Launch vehicle
Mass (kg)
RCS (m²)
0.12

Purposes: tech_demo

External: N2YO · Heavens-Above · Gunter

§ Orbital elements

Epoch: 2026-05-24T23:02:51.946080Z

Period
95.17 min
Inclination
98.4238°
Eccentricity
0.0000813
Mean motion
15.13112130 rev/d
Perigee alt
526.2 km
Apogee alt
527.3 km
Semi-major
6,904.9 km
B*
4.5120e-4
RAAN
145.8004°
Arg perigee
154.4681°
Mean anomaly
205.6588°
Rev number
64,504

§ Raw data

UKUBE-11 40074U 14037F   26144.96032345  .00007916  00000+0  45120-3 0  99962 40074  98.4238 145.8004 0000813 154.4681 205.6588 15.13112130645045

JSON: /api/v1/satellites/40074 · /tle

For live sub-satellite position, see the globe view (requires WebGL).

§ Visibility from observer

Set your observer location to see the next 7 days of passes ≥ 10°. The values pass through the URL so the page stays shareable.

No JS? Fill the form by hand. The geolocation button needs JavaScript.

§ Radio — SatNOGS DB

ModeDescriptionDownlinkUplink
BPSK BPSK TLM 1k2 callsign UKUBE-1 145.840 MHz
CW CW Beacon (drifted) 145.844 MHz
CW CW TLM beacon (current) 145.844 MHz
CW CW TLM beacon callsign UKUBE-1 145.840 MHz
BPSK FUNcube-2 telemetry (drifted) 145.915 MHz
USB Inverting linear transponder 145.930 MHz–145.950 MHz 435.074 MHz–435.094 MHz

6 transmitters · refreshed weekly from db.satnogs.org